Location: Demmingen
(48.6757°N, 10.4375°E)
Time: 20:22:11
(UTC+00:00)

Meteor 1-21 - Pass Details

Date: 23 May 2024
Orbit: 844 x 886 km, 81.2° (Epoch: 23 June)

Event Time Altitude Azimuth Distance (km) Brightness Sun altitude
Exits shadow 00:04:41 36° 175° (S) 1,341 4.7 -19.8°
Maximum altitude 00:07:06 74° 99° (E) 902 4.3 -19.7°
Drops below altitude 10° 00:12:50 10° 15° (NNE) 2,533 7.9 -19.5°
Sets 00:15:18 0° 14° (NNE) 3,482 9.1 -19.4°
